Time,TemperatureF,DewpointF,PressureIn,WindDirection,WindDirectionDegrees,WindSpeedMPH,WindSpeedGustMPH,Humidity,HourlyPrecipIn,Conditions,Clouds,dailyrainin,SoftwareType,DateUTC
2013-10-31 00:00:00,46.2,41.6,30.07,SSE,165,0.0,0.0,84,0.00,CLR,,0.00,WeatherDisplay:10.37,2013-10-31 07:00:00,
2013-10-31 00:15:00,45.6,41.1,30.07,SSE,165,0.0,0.0,84,0.00,FEW,,0.00,WeatherDisplay:10.37,2013-10-31 07:15:00,
2013-10-31 00:30:00,45.6,42.0,30.07,SSE,165,0.0,0.0,87,0.00,FEW,,0.00,WeatherDisplay:10.37,2013-10-31 07:30:00,
2013-10-31 00:45:00,45.6,41.7,30.07,SSE,165,0.0,0.0,86,0.00,CLR,,0.00,WeatherDisplay:10.37,2013-10-31 07:45:00,
2013-10-31 01:00:00,45.3,41.1,30.08,SSE,165,0.0,0.0,85,0.00,CLR,,0.00,WeatherDisplay:10.37,2013-10-31 08:00:00,
2013-10-31 01:15:00,44.9,41.0,30.08,SSE,165,0.0,0.0,86,0.00,CLR,,0.00,WeatherDisplay:10.37,2013-10-31 08:15:00,
2013-10-31 01:30:00,44.8,40.9,30.08,SSE,165,0.0,0.0,86,0.00,CLR,,0.00,WeatherDisplay:10.37,2013-10-31 08:30:00,
2013-10-31 01:45:00,44.5,40.6,30.08,SSE,165,0.0,0.0,86,0.00,CLR,,0.00,WeatherDisplay:10.37,2013-10-31 08:45:00,
2013-10-31 02:00:00,44.2,40.6,30.08,SSE,165,0.0,0.0,87,0.00,CLR,,0.00,WeatherDisplay:10.37,2013-10-31 09:00:00,
2013-10-31 02:15:00,43.9,40.3,30.08,SSE,165,0.0,0.0,87,0.00,CLR,,0.00,WeatherDisplay:10.37,2013-10-31 09:15:00,
2013-10-31 02:30:00,43.4,39.7,30.08,SSE,165,0.0,0.0,87,0.00,CLR,,0.00,WeatherDisplay:10.37,2013-10-31 09:30:00,
2013-10-31 02:45:00,43.3,40.0,30.08,SSE,165,0.0,0.0,88,0.00,CLR,,0.00,WeatherDisplay:10.37,2013-10-31 09:45:00,
2013-10-31 03:00:00,43.2,40.2,30.08,SSE,165,0.0,0.0,89,0.00,CLR,,0.00,WeatherDisplay:10.37,2013-10-31 10:00:00,
2013-10-31 03:15:00,43.1,40.1,30.09,SSE,165,0.0,0.0,89,0.00,CLR,,0.00,WeatherDisplay:10.37,2013-10-31 10:15:00,
2013-10-31 03:30:00,42.8,39.8,30.08,SSE,165,0.0,0.0,89,0.00,CLR,,0.00,WeatherDisplay:10.37,2013-10-31 10:30:00,
2013-10-31 03:45:00,42.5,39.5,30.08,SSE,165,0.0,0.0,89,0.00,CLR,,0.00,WeatherDisplay:10.37,2013-10-31 10:45:00,
2013-10-31 04:00:00,42.3,39.3,30.08,SSE,165,0.0,0.0,89,0.00,CLR,,0.00,WeatherDisplay:10.37,2013-10-31 11:00:00,
2013-10-31 04:15:00,42.1,39.1,30.08,SSE,165,0.0,0.0,89,0.00,CLR,,0.00,WeatherDisplay:10.37,2013-10-31 11:15:00,
2013-10-31 04:30:00,42.0,39.3,30.08,SSE,165,0.0,0.0,90,0.00,CLR,,0.00,WeatherDisplay:10.37,2013-10-31 11:30:00,
2013-10-31 04:45:00,41.7,39.0,30.08,SSE,165,0.0,0.0,90,0.00,CLR,,0.00,WeatherDisplay:10.37,2013-10-31 11:45:00,
2013-10-31 05:00:00,41.6,38.9,30.08,SSE,165,0.0,0.0,90,0.00,CLR,,0.00,WeatherDisplay:10.37,2013-10-31 12:00:00,
2013-10-31 05:15:00,41.5,38.8,30.09,SSE,165,0.0,0.0,90,0.00,CLR,,0.00,WeatherDisplay:10.37,2013-10-31 12:15:00,
2013-10-31 05:30:00,41.5,39.1,30.09,SSE,165,0.0,0.0,91,0.00,CLR,,0.00,WeatherDisplay:10.37,2013-10-31 12:30:00,
2013-10-31 05:45:00,41.4,39.0,30.10,SSE,165,0.0,0.0,91,0.00,CLR,,0.00,WeatherDisplay:10.37,2013-10-31 12:45:00,
2013-10-31 06:00:00,41.2,38.8,30.10,SSE,165,0.0,0.0,91,0.00,CLR,,0.00,WeatherDisplay:10.37,2013-10-31 13:00:00,
2013-10-31 06:15:00,41.1,38.7,30.10,SSE,165,0.0,0.0,91,0.00,CLR,,0.00,WeatherDisplay:10.37,2013-10-31 13:15:00,
2013-10-31 06:30:00,41.1,39.0,30.10,SSE,165,0.0,0.0,92,0.00,CLR,,0.00,WeatherDisplay:10.37,2013-10-31 13:30:00,
2013-10-31 06:45:00,41.1,39.0,30.10,SSE,165,0.0,0.0,92,0.00,CLR,,0.00,WeatherDisplay:10.37,2013-10-31 13:45:00,
2013-10-31 07:00:00,40.9,38.5,30.10,SSE,165,0.0,0.0,91,0.00,CLR,,0.00,WeatherDisplay:10.37,2013-10-31 14:00:00,
2013-10-31 07:15:00,40.9,38.8,30.10,SSE,165,0.0,0.0,92,0.00,CLR,,0.00,WeatherDisplay:10.37,2013-10-31 14:15:00,
2013-10-31 07:30:00,40.9,38.8,30.10,SSE,165,0.0,0.0,92,0.00,CLR,,0.00,WeatherDisplay:10.37,2013-10-31 14:30:00,
2013-10-31 07:45:00,41.0,38.9,30.11,SSE,165,0.0,0.0,92,0.00,CLR,,0.00,WeatherDisplay:10.37,2013-10-31 14:45:00,
2013-10-31 08:00:00,41.2,39.1,30.12,SSE,165,0.0,0.0,92,0.00,CLR,,0.00,WeatherDisplay:10.37,2013-10-31 15:00:00,
2013-10-31 08:15:00,41.8,39.9,30.13,SSE,165,0.0,0.0,93,0.00,SKC,,0.00,WeatherDisplay:10.37,2013-10-31 15:15:00,
2013-10-31 08:30:00,42.9,41.0,30.13,SSE,165,0.0,0.0,93,0.00,SKC,,0.00,WeatherDisplay:10.37,2013-10-31 15:30:00,
2013-10-31 08:45:00,44.5,42.9,30.13,SSE,165,0.0,0.0,94,0.00,SKC,,0.00,WeatherDisplay:10.37,2013-10-31 15:45:00,
2013-10-31 09:00:00,47.5,45.3,30.13,SSE,165,0.0,0.0,92,0.00,SKC,,0.00,WeatherDisplay:10.37,2013-10-31 16:00:00,
2013-10-31 09:15:00,50.2,45.5,30.14,SSE,165,0.0,0.0,84,0.00,SKC,,0.00,WeatherDisplay:10.37,2013-10-31 16:15:00,
2013-10-31 09:30:00,52.1,45.8,30.14,SSE,165,0.0,0.0,79,0.00,SKC,,0.00,WeatherDisplay:10.37,2013-10-31 16:30:00,
2013-10-31 09:45:00,54.0,45.9,30.13,SSE,165,0.0,0.0,74,0.00,SKC,,0.00,WeatherDisplay:10.37,2013-10-31 16:45:00,
2013-10-31 10:00:00,56.3,46.3,30.13,SSE,165,0.0,0.0,69,0.00,SKC,,0.00,WeatherDisplay:10.37,2013-10-31 17:00:00,
2013-10-31 10:15:00,58.7,46.9,30.13,SSE,165,0.0,1.0,65,0.00,SKC,,0.00,WeatherDisplay:10.37,2013-10-31 17:15:00,
2013-10-31 10:30:00,59.8,46.7,30.13,SE,145,0.0,3.0,62,0.00,SKC,,0.00,WeatherDisplay:10.37,2013-10-31 17:30:00,
2013-10-31 10:45:00,61.6,48.0,30.12,SW,230,0.0,4.0,61,0.00,SKC,,0.00,WeatherDisplay:10.37,2013-10-31 17:45:00,
2013-10-31 11:00:00,62.8,47.8,30.11,WSW,242,0.0,3.0,58,0.00,SKC,,0.00,WeatherDisplay:10.37,2013-10-31 18:00:00,
2013-10-31 11:15:00,64.7,47.7,30.11,West,267,0.0,3.0,54,0.00,SKC,,0.00,WeatherDisplay:10.37,2013-10-31 18:15:00,
2013-10-31 11:30:00,62.9,47.0,30.11,SE,143,0.0,4.0,56,0.00,SKC,,0.00,WeatherDisplay:10.37,2013-10-31 18:30:00,
2013-10-31 11:45:00,63.6,47.6,30.10,SSW,201,1.0,4.0,56,0.00,SKC,,0.00,WeatherDisplay:10.37,2013-10-31 18:45:00,
2013-10-31 12:00:00,65.2,48.6,30.10,WSW,255,1.0,4.0,55,0.00,SKC,,0.00,WeatherDisplay:10.37,2013-10-31 19:00:00,
2013-10-31 12:15:00,66.8,50.1,30.10,WSW,243,2.0,5.0,55,0.00,SKC,,0.00,WeatherDisplay:10.37,2013-10-31 19:15:00,
2013-10-31 12:30:00,66.5,47.3,30.09,SSW,196,1.0,4.0,50,0.00,SKC,,0.00,WeatherDisplay:10.37,2013-10-31 19:30:00,
2013-10-31 12:45:00,66.0,48.9,30.08,SSW,196,0.0,4.0,54,0.00,SKC,,0.00,WeatherDisplay:10.37,2013-10-31 19:45:00,
2013-10-31 13:00:00,66.8,49.6,30.07,SE,135,0.0,5.0,54,0.00,SKC,,0.00,WeatherDisplay:10.37,2013-10-31 20:00:00,
2013-10-31 13:15:00,68.6,50.2,30.06,SE,142,0.0,3.0,52,0.00,SKC,,0.00,WeatherDisplay:10.37,2013-10-31 20:15:00,
2013-10-31 13:30:00,69.6,50.1,30.05,SW,214,0.0,4.0,50,0.00,SKC,,0.00,WeatherDisplay:10.37,2013-10-31 20:30:00,
2013-10-31 13:45:00,70.1,48.9,30.04,SSE,167,0.0,4.0,47,0.00,SKC,,0.00,WeatherDisplay:10.37,2013-10-31 20:45:00,
2013-10-31 14:00:00,71.0,49.2,30.03,SSW,208,0.0,5.0,46,0.00,SKC,,0.00,WeatherDisplay:10.37,2013-10-31 21:00:00,
2013-10-31 14:15:00,72.0,45.7,30.02,SE,137,1.0,5.0,39,0.00,SKC,,0.00,WeatherDisplay:10.37,2013-10-31 21:15:00,
2013-10-31 14:30:00,71.8,44.8,30.01,SSE,163,0.0,5.0,38,0.00,SKC,,0.00,WeatherDisplay:10.37,2013-10-31 21:30:00,
2013-10-31 14:45:00,72.5,44.7,30.01,South,183,0.0,5.0,37,0.00,SKC,,0.00,WeatherDisplay:10.37,2013-10-31 21:45:00,
2013-10-31 15:00:00,73.5,45.6,30.00,South,179,0.0,7.0,37,0.00,SKC,,0.00,WeatherDisplay:10.37,2013-10-31 22:00:00,
2013-10-31 15:15:00,73.3,44.7,30.00,South,174,1.0,7.0,36,0.00,SKC,,0.00,WeatherDisplay:10.37,2013-10-31 22:15:00,
2013-10-31 15:30:00,72.3,44.6,30.00,SSE,153,0.0,5.0,37,0.00,SKC,,0.00,WeatherDisplay:10.37,2013-10-31 22:30:00,
2013-10-31 15:45:00,72.2,43.7,29.99,SSE,161,1.0,5.0,36,0.00,SKC,,0.00,WeatherDisplay:10.37,2013-10-31 22:45:00,
2013-10-31 16:00:00,73.2,44.6,29.99,SE,143,1.0,4.0,36,0.00,SKC,,0.00,WeatherDisplay:10.37,2013-10-31 23:00:00,
2013-10-31 16:15:00,73.4,44.8,29.99,South,171,0.0,4.0,36,0.00,SKC,,0.00,WeatherDisplay:10.37,2013-10-31 23:15:00,
2013-10-31 16:30:00,73.6,45.0,29.99,SSE,147,2.0,4.0,36,0.00,SKC,,0.00,WeatherDisplay:10.37,2013-10-31 23:30:00,
2013-10-31 16:45:00,72.7,47.0,29.98,SE,144,0.0,4.0,40,0.00,SKC,,0.00,WeatherDisplay:10.37,2013-10-31 23:45:00,
2013-10-31 17:00:00,72.8,48.4,29.98,SE,132,0.0,1.0,42,0.00,SKC,,0.00,WeatherDisplay:10.37,2013-11-01 00:00:00,
2013-10-31 17:15:00,72.2,49.7,29.99,ESE,119,0.0,1.0,45,0.00,SKC,,0.00,WeatherDisplay:10.37,2013-11-01 00:15:00,
2013-10-31 17:30:00,71.6,50.3,29.98,SE,137,0.0,3.0,47,0.00,SKC,,0.00,WeatherDisplay:10.37,2013-11-01 00:30:00,
2013-10-31 17:45:00,70.6,48.2,29.98,SE,137,0.0,1.0,45,0.00,SKC,,0.00,WeatherDisplay:10.37,2013-11-01 00:45:00,
2013-10-31 18:00:00,69.0,47.4,29.99,SE,137,0.0,1.0,46,0.00,SKC,,0.00,WeatherDisplay:10.37,2013-11-01 01:00:00,
2013-10-31 18:15:00,67.4,47.6,29.99,SE,137,0.0,0.0,49,0.00,SKC,,0.00,WeatherDisplay:10.37,2013-11-01 01:15:00,
2013-10-31 18:30:00,66.1,46.9,29.99,SE,137,0.0,1.0,50,0.00,SKC,,0.00,WeatherDisplay:10.37,2013-11-01 01:30:00,
2013-10-31 18:45:00,64.7,47.2,30.00,SE,137,0.0,1.0,53,0.00,SKC,,0.00,WeatherDisplay:10.37,2013-11-01 01:45:00,
2013-10-31 19:00:00,63.6,47.1,30.00,SE,137,0.0,0.0,55,0.00,SKC,,0.00,WeatherDisplay:10.37,2013-11-01 02:00:00,
2013-10-31 19:15:00,62.4,46.9,30.00,SE,137,0.0,0.0,57,0.00,SKC,,0.00,WeatherDisplay:10.37,2013-11-01 02:15:00,
2013-10-31 19:30:00,61.2,47.2,30.01,SE,137,0.0,0.0,60,0.00,SKC,,0.00,WeatherDisplay:10.37,2013-11-01 02:30:00,
2013-10-31 19:45:00,59.9,46.4,30.01,SE,137,0.0,0.0,61,0.00,SKC,,0.00,WeatherDisplay:10.37,2013-11-01 02:45:00,
2013-10-31 20:00:00,59.0,46.4,30.01,SE,137,0.0,0.0,63,0.00,SKC,,0.00,WeatherDisplay:10.37,2013-11-01 03:00:00,
2013-10-31 20:15:00,57.9,45.8,30.02,SE,137,0.0,0.0,64,0.00,SKC,,0.00,WeatherDisplay:10.37,2013-11-01 03:15:00,
2013-10-31 20:30:00,56.7,45.9,30.02,SE,138,0.0,0.0,67,0.00,SKC,,0.00,WeatherDisplay:10.37,2013-11-01 03:30:00,
2013-10-31 20:45:00,55.7,46.4,30.02,SE,137,0.0,0.0,71,0.00,SKC,,0.00,WeatherDisplay:10.37,2013-11-01 03:45:00,
2013-10-31 21:00:00,54.8,46.7,30.02,SE,138,0.0,0.0,74,0.00,SKC,,0.00,WeatherDisplay:10.37,2013-11-01 04:00:00,
2013-10-31 21:15:00,54.0,46.3,30.02,SE,137,0.0,0.0,75,0.00,SKC,,0.00,WeatherDisplay:10.37,2013-11-01 04:15:00,
2013-10-31 21:30:00,53.4,45.7,30.02,SE,137,0.0,0.0,75,0.00,SKC,,0.00,WeatherDisplay:10.37,2013-11-01 04:30:00,
2013-10-31 21:45:00,52.7,45.7,30.03,SE,138,0.0,0.0,77,0.00,CLR,,0.00,WeatherDisplay:10.37,2013-11-01 04:45:00,
2013-10-31 22:00:00,52.1,45.4,30.03,SE,137,0.0,0.0,78,0.00,CLR,,0.00,WeatherDisplay:10.37,2013-11-01 05:00:00,
2013-10-31 22:15:00,51.5,44.9,30.04,SE,137,0.0,0.0,78,0.00,CLR,,0.00,WeatherDisplay:10.37,2013-11-01 05:15:00,
2013-10-31 22:30:00,51.0,44.8,30.04,SE,137,0.0,0.0,79,0.00,CLR,,0.00,WeatherDisplay:10.37,2013-11-01 05:30:00,
2013-10-31 22:45:00,50.6,44.7,30.04,SE,137,0.0,0.0,80,0.00,CLR,,0.00,WeatherDisplay:10.37,2013-11-01 05:45:00,
2013-10-31 23:00:00,50.1,44.2,30.04,SE,138,0.0,0.0,80,0.00,CLR,,0.00,WeatherDisplay:10.37,2013-11-01 06:00:00,
2013-10-31 23:15:00,49.7,44.1,30.04,SE,137,0.0,0.0,81,0.00,CLR,,0.00,WeatherDisplay:10.37,2013-11-01 06:15:00,
2013-10-31 23:30:00,49.3,44.0,30.04,SE,137,0.0,0.0,82,0.00,CLR,,0.00,WeatherDisplay:10.37,2013-11-01 06:30:00,
2013-10-31 23:45:00,48.8,43.5,30.04,SE,138,0.0,0.0,82,0.00,CLR,,0.00,WeatherDisplay:10.37,2013-11-01 06:45:00,